�������l�o���
Date,Time,MP-1(��Sv/h),MP-2(��Sv/h),MP-3(��Sv/h),MP-4(��Sv/h),MP-5(��Sv/h),MP-6(��Sv/h),MP-7(��Sv/h),����,����(m/s),���J
2017/04/04,00:00,0.377,0.228,0.387,0.358,0.327,0.190,0.159,��,1.4,��
2017/04/04,00:10,0.378,0.227,0.387,0.357,0.326,0.189,0.160,���k��,2.1,��
2017/04/04,00:20,0.377,0.228,0.387,0.359,0.327,0.190,0.159,�k��,2.4,��
2017/04/04,00:30,0.376,0.228,0.388,0.359,0.329,0.189,0.159,�k��,1.7,��
2017/04/04,00:40,0.376,0.228,0.388,0.357,0.327,0.189,0.161,���k��,2.8,��
2017/04/04,00:50,0.377,0.228,0.388,0.359,0.328,0.191,0.161,�k��,3.3,��
2017/04/04,01:00,0.376,0.228,0.389,0.359,0.328,0.190,0.161,�k��,3.8,��
2017/04/04,01:10,0.375,0.230,0.388,0.357,0.330,0.190,0.160,�k��,3.1,��
2017/04/04,01:20,0.377,0.228,0.389,0.358,0.328,0.189,0.160,�k�k��,4.5,�L
2017/04/04,01:30,0.377,0.227,0.388,0.358,0.326,0.189,0.160,�k�k��,5.3,�L
2017/04/04,01:40,0.376,0.229,0.387,0.359,0.328,0.190,0.161,�k,4.9,��
2017/04/04,01:50,0.376,0.229,0.387,0.356,0.330,0.190,0.159,�k�k��,3.9,�L
2017/04/04,02:00,0.377,0.228,0.388,0.358,0.328,0.191,0.160,�k,4.2,��
2017/04/04,02:10,0.377,0.228,0.388,0.358,0.327,0.189,0.160,�k�k��,4.8,��
2017/04/04,02:20,0.376,0.228,0.386,0.357,0.329,0.189,0.160,�k�k��,4.5,��
2017/04/04,02:30,0.377,0.229,0.389,0.358,0.328,0.190,0.159,�k�k��,4.8,��
2017/04/04,02:40,0.377,0.229,0.388,0.359,0.328,0.190,0.160,�k�k��,5.2,��
2017/04/04,02:50,0.377,0.229,0.387,0.359,0.327,0.190,0.159,�k��,5.0,��
2017/04/04,03:00,0.377,0.228,0.387,0.357,0.329,0.190,0.161,�k�k��,5.6,��
2017/04/04,03:10,0.378,0.229,0.389,0.357,0.329,0.191,0.160,�k�k��,6.2,��
2017/04/04,03:20,0.378,0.228,0.387,0.359,0.328,0.190,0.159,�k�k��,6.4,��
2017/04/04,03:30,0.377,0.228,0.387,0.356,0.329,0.190,0.160,�k�k��,6.2,��
2017/04/04,03:40,0.377,0.229,0.386,0.358,0.330,0.189,0.160,�k�k��,5.8,��
2017/04/04,03:50,0.378,0.229,0.387,0.359,0.329,0.191,0.160,�k�k��,5.3,��
2017/04/04,04:00,0.377,0.229,0.387,0.359,0.328,0.189,0.160,�k�k��,5.1,��
2017/04/04,04:10,0.377,0.228,0.388,0.359,0.327,0.189,0.161,�k�k��,4.8,��
2017/04/04,04:20,0.378,0.228,0.389,0.359,0.328,0.191,0.159,�k��,5.3,��
2017/04/04,04:30,0.377,0.229,0.387,0.358,0.328,0.189,0.160,�k�k��,6.2,��
2017/04/04,04:40,0.378,0.229,0.388,0.359,0.327,0.190,0.160,�k�k��,7.0,��
2017/04/04,04:50,0.378,0.228,0.388,0.359,0.326,0.190,0.160,�k�k��,7.5,��
2017/04/04,05:00,0.375,0.229,0.389,0.359,0.328,0.189,0.161,�k�k��,7.3,��
2017/04/04,05:10,0.377,0.228,0.388,0.357,0.329,0.191,0.160,�k�k��,6.6,��
2017/04/04,05:20,0.376,0.229,0.388,0.358,0.327,0.189,0.160,�k�k��,5.8,��
2017/04/04,05:30,0.378,0.229,0.390,0.358,0.327,0.189,0.161,�k�k��,6.3,��
2017/04/04,05:40,0.377,0.228,0.389,0.358,0.327,0.189,0.161,�k,6.0,��
2017/04/04,05:50,0.378,0.228,0.387,0.357,0.329,0.191,0.160,�k,5.6,��
2017/04/04,06:00,0.377,0.229,0.389,0.357,0.328,0.189,0.160,�k,6.1,��
2017/04/04,06:10,0.377,0.228,0.388,0.359,0.329,0.191,0.159,�k,6.3,��
2017/04/04,06:20,0.379,0.229,0.390,0.359,0.328,0.190,0.159,�k,7.4,��
2017/04/04,06:30,0.377,0.228,0.389,0.358,0.329,0.190,0.160,�k,7.4,��
2017/04/04,06:40,0.378,0.230,0.387,0.358,0.329,0.190,0.159,�k,6.8,��
2017/04/04,06:50,0.378,0.230,0.389,0.359,0.327,0.190,0.159,�k,6.2,��
2017/04/04,07:00,0.376,0.229,0.389,0.359,0.328,0.190,0.160,�k�k��,5.5,��
2017/04/04,07:10,0.378,0.228,0.388,0.357,0.330,0.190,0.159,�k,4.4,��
2017/04/04,07:20,0.378,0.228,0.389,0.357,0.328,0.190,0.159,�k,4.5,��
2017/04/04,07:30,0.378,0.228,0.387,0.357,0.327,0.189,0.159,�k�k��,3.9,��
2017/04/04,07:40,0.377,0.228,0.386,0.356,0.330,0.190,0.158,�k,4.8,��
2017/04/04,07:50,0.378,0.227,0.389,0.357,0.329,0.191,0.160,�k��,4.5,��
2017/04/04,08:00,0.378,0.228,0.388,0.357,0.327,0.191,0.160,�k��,4.5,��
2017/04/04,08:10,0.377,0.227,0.387,0.359,0.329,0.190,0.160,�k��,3.6,��
2017/04/04,08:20,0.378,0.227,0.388,0.355,0.328,0.191,0.160,�k��,3.9,��
2017/04/04,08:30,0.378,0.228,0.388,0.358,0.329,0.190,0.160,�k��,3.9,��
2017/04/04,08:40,0.375,0.227,0.388,0.357,0.329,0.189,0.160,�k��,4.5,��
2017/04/04,08:50,0.378,0.227,0.388,0.359,0.328,0.189,0.159,���k��,3.8,��
2017/04/04,09:00,0.376,0.229,0.389,0.356,0.328,0.189,0.160,���k��,3.4,��
2017/04/04,09:10,0.376,0.229,0.387,0.358,0.328,0.190,0.159,�k��,2.7,��
2017/04/04,09:20,0.376,0.227,0.387,0.357,0.326,0.189,0.161,���k��,3.5,��
2017/04/04,09:30,0.377,0.227,0.389,0.359,0.331,0.189,0.160,���k��,3.8,��
2017/04/04,09:40,0.375,0.228,0.387,0.356,0.328,0.190,0.160,�k��,3.9,��
2017/04/04,09:50,0.372,0.227,0.388,0.359,0.329,0.189,0.160,���k��,3.4,��
2017/04/04,10:00,0.374,0.228,0.389,0.358,0.327,0.190,0.160,�k��,1.9,��
2017/04/04,10:10,0.374,0.228,0.388,0.357,0.329,0.190,0.160,���k��,1.7,��
2017/04/04,10:20,-,0.228,0.388,0.357,0.328,0.190,0.160,���k��,3.0,��
2017/04/04,10:30,-,0.229,0.389,0.357,0.328,0.190,0.161,���k��,2.6,��
2017/04/04,10:40,-,0.227,0.386,0.359,0.329,0.189,0.160,��,2.8,��
2017/04/04,10:50,-,0.228,0.390,0.357,0.329,0.190,0.161,��,1.8,��
2017/04/04,11:00,-,0.228,0.386,0.361,0.328,0.190,0.160,���k��,1.6,��
2017/04/04,11:10,-,0.227,0.387,0.357,0.328,0.190,0.161,��,2.2,��
2017/04/04,11:20,-,0.229,0.385,0.361,0.329,0.191,0.161,���k��,2.2,��
2017/04/04,11:30,-,0.227,0.388,0.358,0.329,0.189,0.162,���쓌,1.4,��
2017/04/04,11:40,-,0.229,0.385,0.359,0.328,0.190,0.160,�쓌,2.0,��
2017/04/04,11:50,-,0.229,0.387,0.359,0.329,0.189,0.161,�쓌,2.3,��
2017/04/04,12:00,-,0.228,0.384,0.357,0.327,0.191,0.161,��쓌,2.2,��
2017/04/04,12:10,0.383,0.227,0.388,0.362,0.329,0.190,0.161,�쓌,2.5,��
2017/04/04,12:20,0.378,0.229,0.388,0.358,0.327,0.190,0.161,�쓌,2.6,��
2017/04/04,12:30,0.381,0.229,0.387,0.361,0.331,0.190,0.161,��쓌,3.0,��
2017/04/04,12:40,0.377,0.228,0.388,0.357,0.326,0.190,0.162,�쓌,2.9,��
2017/04/04,12:50,0.380,0.229,0.385,0.361,0.332,0.190,0.161,��쓌,2.5,��
2017/04/04,13:00,0.376,0.229,0.389,0.358,0.328,0.190,0.160,��쓌,2.2,��
2017/04/04,13:10,0.378,0.230,0.386,0.361,0.331,0.190,0.161,��쓌,2.4,��
2017/04/04,13:20,0.378,0.228,0.389,0.360,0.329,0.191,0.162,��쓌,2.5,��
2017/04/04,13:30,0.377,0.230,0.388,0.360,0.329,0.190,0.161,��쓌,2.7,��
2017/04/04,13:40,0.378,0.229,0.386,0.359,0.330,0.190,0.162,��쓌,3.3,��
2017/04/04,13:50,0.377,0.229,0.384,0.359,0.328,0.190,0.160,��쓌,3.3,��
2017/04/04,14:00,0.379,0.228,0.379,0.361,0.331,0.189,0.162,��,3.6,��
2017/04/04,14:10,0.376,0.228,-,0.360,0.328,0.190,0.161,��쓌,3.1,��
2017/04/04,14:20,0.382,0.228,-,0.360,0.330,0.191,0.163,��,3.3,��
2017/04/04,14:30,0.377,0.229,-,0.361,0.331,0.191,0.162,��쓌,2.5,��
2017/04/04,14:40,0.380,0.229,-,0.360,0.331,0.192,0.161,��쓌,2.5,��
2017/04/04,14:50,0.379,0.230,-,0.363,0.330,0.191,0.162,��쓌,2.4,��
2017/04/04,15:00,0.379,0.230,-,0.361,0.330,0.191,0.162,��쓌,3.1,��
2017/04/04,15:10,0.379,0.228,-,0.360,0.331,0.191,0.161,��,3.0,��
2017/04/04,15:20,0.377,0.230,-,0.362,0.329,0.190,0.162,��,2.7,��
2017/04/04,15:30,0.380,0.230,-,0.361,0.331,0.190,0.161,��쓌,2.8,��
2017/04/04,15:40,0.378,0.229,-,0.362,0.330,0.190,0.161,��,3.9,��
2017/04/04,15:50,0.378,0.229,-,0.360,0.331,0.190,0.161,��쓌,3.7,��
2017/04/04,16:00,0.378,0.229,-,0.361,0.328,0.192,0.161,��,3.8,��
2017/04/04,16:10,0.378,0.230,0.392,0.362,0.330,0.190,0.161,��,3.2,��
2017/04/04,16:20,0.379,0.231,0.395,0.360,0.330,0.191,0.161,��,4.7,��
2017/04/04,16:30,0.377,0.230,0.392,0.362,0.329,0.191,0.161,��,4.0,��
2017/04/04,16:40,0.378,0.230,0.391,0.360,0.332,0.191,0.162,��,3.9,��
2017/04/04,16:50,0.377,0.229,0.391,0.361,0.329,0.191,0.162,��,3.9,��
2017/04/04,17:00,0.379,0.229,0.392,0.362,0.332,0.190,0.162,��,4.3,��
2017/04/04,17:10,0.380,0.230,0.390,0.360,0.331,0.189,0.162,��,4.9,��
2017/04/04,17:20,0.377,0.229,0.392,0.361,0.329,0.190,0.163,��,5.1,��
2017/04/04,17:30,0.379,0.230,0.389,0.361,0.330,0.190,0.163,��,5.1,��
2017/04/04,17:40,0.378,0.231,0.389,0.362,0.330,0.191,0.163,��쐼,5.5,��
2017/04/04,17:50,0.378,0.230,0.389,0.361,0.331,0.191,0.162,��쐼,6.4,��
2017/04/04,18:00,0.379,0.229,0.390,0.361,0.332,0.190,0.161,��쐼,7.5,��
2017/04/04,18:10,0.380,0.228,0.390,0.360,0.330,0.190,0.162,��쐼,6.9,��
2017/04/04,18:20,0.378,0.230,0.390,0.362,0.332,0.191,0.162,��쐼,8.0,��
2017/04/04,18:30,0.380,0.230,0.391,0.365,0.332,0.191,0.162,��쐼,8.3,��
2017/04/04,18:40,0.379,0.230,0.390,0.363,0.330,0.190,0.162,��쐼,8.2,��
2017/04/04,18:50,0.378,0.230,0.390,0.363,0.331,0.191,0.162,��쐼,7.5,��
2017/04/04,19:00,0.380,0.228,0.390,0.362,0.332,0.190,0.162,��쐼,7.6,��
2017/04/04,19:10,0.378,0.229,0.390,0.361,0.331,0.191,0.162,��쐼,6.2,��
2017/04/04,19:20,0.379,0.230,0.391,0.362,0.329,0.191,0.162,��쐼,6.6,��
2017/04/04,19:30,0.380,0.230,0.391,0.361,0.332,0.191,0.162,��쐼,6.4,��
2017/04/04,19:40,0.379,0.230,0.391,0.362,0.331,0.191,0.161,��쐼,6.1,��
2017/04/04,19:50,0.380,0.230,0.389,0.361,0.331,0.190,0.162,��쐼,5.3,��
2017/04/04,20:00,0.378,0.230,0.393,0.362,0.332,0.192,0.162,��쐼,4.8,��
2017/04/04,20:10,0.380,0.231,0.390,0.362,0.331,0.191,0.162,��쐼,4.8,��
2017/04/04,20:20,0.378,0.230,0.389,0.362,0.332,0.191,0.162,��쐼,4.2,��
2017/04/04,20:30,0.379,0.230,0.389,0.363,0.332,0.192,0.162,��쐼,3.9,��
2017/04/04,20:40,0.381,0.230,0.391,0.364,0.332,0.192,0.162,��쐼,4.1,��
2017/04/04,20:50,0.380,0.230,0.389,0.361,0.329,0.192,0.162,��쐼,3.3,��
2017/04/04,21:00,0.380,0.231,0.390,0.362,0.332,0.192,0.163,��쐼,1.1,��
2017/04/04,21:10,0.382,0.231,0.393,0.364,0.330,0.191,0.163,�쐼,1.6,��
2017/04/04,21:20,0.381,0.230,0.391,0.362,0.330,0.193,0.163,��쐼,2.5,��
2017/04/04,21:30,0.379,0.231,0.392,0.363,0.331,0.192,0.163,��쐼,3.1,��
2017/04/04,21:40,0.379,0.231,0.391,0.361,0.332,0.192,0.162,��,4.1,��
2017/04/04,21:50,0.380,0.231,0.391,0.362,0.330,0.193,0.162,��쐼,4.7,��
2017/04/04,22:00,0.379,0.230,0.392,0.362,0.331,0.192,0.163,��쐼,4.2,��
2017/04/04,22:10,0.379,0.230,0.392,0.362,0.332,0.193,0.162,�쐼,4.2,��
2017/04/04,22:20,0.379,0.230,0.392,0.363,0.331,0.191,0.163,��쐼,2.8,��
2017/04/04,22:30,0.380,0.230,0.392,0.361,0.331,0.192,0.163,�쐼,3.3,��
2017/04/04,22:40,0.379,0.230,0.390,0.361,0.330,0.192,0.163,�쐼,3.2,��
2017/04/04,22:50,0.379,0.230,0.391,0.362,0.332,0.191,0.162,�쐼,3.9,��
2017/04/04,23:00,0.380,0.230,0.390,0.362,0.329,0.193,0.162,�쐼,5.2,��
2017/04/04,23:10,0.380,0.230,0.391,0.361,0.329,0.192,0.162,�쐼,4.7,��
2017/04/04,23:20,0.380,0.230,0.391,0.364,0.331,0.192,0.163,�쐼,3.5,��
2017/04/04,23:30,0.379,0.231,0.392,0.364,0.330,0.192,0.163,�쐼,6.2,��
2017/04/04,23:40,0.379,0.230,0.391,0.362,0.329,0.192,0.162,�쐼,5.5,��
2017/04/04,23:50,0.379,0.230,0.390,0.363,0.330,0.191,0.162,�쐼,5.0,��
